GALAXY 18 (G-18)

Last updated on Sat Aug 15 2026 00:02:57 GMT+0000 (Coordinated Universal Time)

1 32951U 08024A 26226.54344263 .00000010 00000+0 00000+0 0 9992 2 32951 0.0141 97.1982 0002900 46.0053 252.3758 1.00272128 46435
UTC large
Height (km)
Speed (km/s)
/
Latitude / Longitude
Inclination (degrees)
Orbital Period (minutes)
Azimuth
Elevation
Range (km)
Doppler Factor

Next 0 passes for location: London (51.5072 / 0.1276)

No passes found over London.
GALAXY 18 (G-18)